Regional Weather Roundup
Issued by NWS Green Bay, WI

Home | Current Version | Previous Version | Text Only | Print | Product List | Glossary On
Versions: 1 2 3 4 5 6 7 8 9 10 11 12 13 14 15 16 17 18 19 20 21 22 23 24 25 26 27 28 29 30 31 32 33 34 35 36 37 38 39 40 41 42 43 44 45 46 47 48 49 50
000
ASUS43 KGRB 240910
RWRGRB

NORTH-CENTRAL AND NORTHEAST WISCONSIN REGIONAL WEATHER ROUNDUP
NATIONAL WEATHER SERVICE GREEN BAY WI
400 AM CDT FRI OCT 24 2014

WIZ005-009-010>012-018-019-241000-
NORTH CENTRAL WISCONSIN

CITY           SKY/WX    TMP DP  RH WIND       PRES   REMARKS
IRONWOOD       MOCLDY    46  46 100 S8        29.93S
MANITOWISH WTR CLOUDY    45  45 100 SW6       29.98S FOG
ARBOR VITAE    FOG       45  44  97 SW5       29.98F VSB 1
EAGLE RIVER    FOG       44  44 100 SW6       29.98S VSB 1/2
LAND O LAKES   FOG       44  44 100 SW5       29.98F VSB 1/2
RHINELANDER    FOG       44  44 100 SW5       29.99F VSB 1/4
PHILLIPS       CLOUDY    46  46 100 SW7       29.99R FOG
ANTIGO         FOG       43  43 100 NW3       29.99F VSB 1/4
TOMAHAWK       FOG       44  43  97 CALM      30.00S VSB 1/2
MERRILL        FOG       45  45 100 W5        30.00F VSB 3/4
$$

WIZ013-073-241000-
NORTHEAST WISCONSIN

CITY           SKY/WX    TMP DP  RH WIND       PRES   REMARKS
IRON MOUNTAIN  CLOUDY    45  43  93 NW8       29.98S FOG
MARINETTE      CLOUDY    48  45  87 SW3       29.99F
OCONTO         CLOUDY    47  47 100 W5        30.01S
$$

WIZ017-030-035>037-045-241000-
CENTRAL WISCONSIN

CITY           SKY/WX    TMP DP  RH WIND       PRES   REMARKS
MEDFORD        FOG       44  44 100 SW3       30.01R VSB 1/4
WAUSAU         CLOUDY    46  45  96 CALM      29.99F FOG
MOSINEE        FOG       45  45 100 SW5       30.01F VSB 1
MARSHFIELD     FOG       46  45  96 SW5       30.01F VSB 1/4
WISC RAPIDS    CLOUDY    47  46  97 SW8       30.03F FOG
STEVENS POINT  CLOUDY    45  45  99 SW3       30.01F FOG
WAUPACA        CLOUDY    49  48  97 CALM      30.03S FOG
SHAWANO        CLOUDY    48  47  94 SW3       30.02F FOG
CLINTONVILLE   CLOUDY    46  45  93 CALM      30.02S FOG
$$

WIZ038-039-048-051-241000-
FOX VALLEY

CITY           SKY/WX    TMP DP  RH WIND       PRES   REMARKS
NWS GREEN BAY  CLOUDY    48  47  96 W6        30.02S FOG
APPLETON       CLOUDY    46  45  93 W5        30.03S FOG
OSHKOSH        CLOUDY    48  47  96 CALM      30.03S FOG
FOND DU LAC    CLOUDY    48  46  93 CALM      30.03S FOG
$$

WIZ022-050-052-241000-
EAST CENTRAL WISCONSIN

CITY           SKY/WX    TMP DP  RH WIND       PRES   REMARKS
STURGEON BAY   CLOUDY    48  45  87 W5        30.01F
MANITOWOC      CLOUDY    49  48  97 W3        30.02F FOG
SHEBOYGAN      CLOUDY    49  48  97 W5        30.03S FOG
$$

LMZ563-521-522-541>543-241000-
LAKESHORE

STATION/POSITION TIME  TEMP    WIND        PRES    VSBY  WAVE
                       AIR SEA DIR/SP/G                  HT/PER
                 (UTC) (F)     (DEG/KT/KT) (MB)    (MI)  (FT/S)
SHEBOYGAN LKSHOR 0900   51 51  300/  3/  4 1017.3S
KEWAUNEE LKSHORE 0900   49     250/  2/  4 1015.5S
NORTHPORT PIER   0900   49     260/  2/  5 1015.9S
N MID LAKE BUOY  0900   51 51  260/  8/ 10 1016.2F         3/ 5
SISTER BAY LKSHO 0800             CALM       N/A
CHAMBERS ISLAND  0900   49     210/  5/  7 1015.9F
MENOMINEE LKSHOR 0900   48     230/  6/  7 1016.4F
$$



USA.gov is the U.S. government's official web portal to all federal, state and local government web resources and services.